Location: Unspecified
(0.0000°N, 0.0000°E)
Time: 04:28:19
(UTC+00:00)

QB50P2 - Pass Details

Date: 19 March 2026
Orbit: 517 x 528 km, 98.1° (Epoch: 20 April)

Event Time Altitude Azimuth Distance (km) Brightness Sun altitude
Rises 05:06:03 0° 359° (N) 2,621 ? -15.5°
Reaches altitude 10° 05:08:13 10° 351° (N) 1,738 ? -14.9°
Maximum altitude 05:11:43 39° 282° (WNW) 785 ? -14.0°
Drops below altitude 10° 05:15:16 10° 212° (SSW) 1,752 ? -13.1°
Sets 05:17:28 0° 204° (SSW) 2,644 ? -12.6°
